Sterling Muni, Sterling, CO, CO

9:21 PM MDT on October 20, 2017 (GMT -0600)
Sterling Municipal

Weather History for KSTK - February, 2014

Change the Weather History Date:

Friday, February 7, 2014

  Actual Average Record
Temperature  
Mean Temperature -2 °F -  
Max Temperature 12 °F 39 °F 75 °F (2015)
Min Temperature -16 °F 11 °F -16 °F (2014)
Degree Days  
Heating Degree Days 67    
Moisture  
Dew Point -7 °F    
Average Humidity 75    
Maximum Humidity 85    
Minimum Humidity 62    
Precipitation  
Precipitation 0.00 in - - ()
Sea Level Pressure  
Sea Level Pressure 29.86 in    
Wind  
Wind Speed 6 mph (SSW)    
Max Wind Speed 13 mph    
Max Gust Speed -    
Visibility 10 miles    
Events      
Averages and records for this station are not official NWS values.
T = Trace of Precipitation, MM = Missing Value Source: NWS Daily Summary

Daily Weather History Graph

Daily Weather History Graph

Search for Another Location

Airport or City:

Trip Planner

Search our weather history database for the weather conditions in past years. The results will help you decide how hot, cold, wet, or windy it might be!

Date:

Astronomy

Feb. 07, 2014 Rise Set
Actual Time 6:56 AM MST 5:18 PM MST
Civil Twilight 6:27 AM MST 5:46 PM MST
Nautical Twilight 5:55 AM MST 6:19 PM MST
Astronomical Twilight 5:23 AM MST 6:51 PM MST
Moon 11:31 AM MST (2/7) 1:14 AM MST (2/7)
Length of Visible Light 11h 18m
Length of Day
10h 21m
First Quarter, 60% of the Moon is Illuminated
Feb 7
First Quarter
Feb 14
Full
Feb 22
Last Quarter
Mar 1
New
Mar 8
First Quarter

Hourly Weather History & Observations

Time (MST) Temp. Windchill Dew Point Humidity Pressure Visibility Wind Dir Wind Speed Gust Speed Precip Events Conditions
12:10 AM -14.8 °F -24.8 °F -18.4 °F 84% 29.98 in 10.0 mi SSW 3.5 mph - N/A   Clear
12:30 AM -14.8 °F - -18.4 °F 84% 29.96 in 10.0 mi Calm Calm - N/A   Clear
12:50 AM -14.8 °F - -18.4 °F 84% 29.96 in 10.0 mi Calm Calm - N/A   Clear
1:10 AM -14.8 °F - -18.4 °F 84% 29.96 in 10.0 mi Calm Calm - N/A   Clear
1:30 AM -14.8 °F - -18.4 °F 84% 29.95 in 10.0 mi Calm Calm - N/A   Clear
1:50 AM -16.6 °F - -22.0 °F 76% 29.94 in 10.0 mi Calm Calm - N/A   Clear
2:10 AM -16.6 °F - -20.2 °F 84% 29.95 in 10.0 mi Calm Calm - N/A   Clear
2:30 AM -16.6 °F -26.8 °F -22.0 °F 76% 29.94 in 10.0 mi South 3.5 mph - N/A   Clear
2:50 AM -16.6 °F -26.8 °F -22.0 °F 76% 29.93 in 10.0 mi South 3.5 mph - N/A   Scattered Clouds
3:10 AM -16.6 °F -26.8 °F -20.2 °F 84% 29.93 in 10.0 mi SSW 3.5 mph - N/A   Scattered Clouds
3:30 AM -16.6 °F -26.8 °F -20.2 °F 84% 29.93 in 10.0 mi SSW 3.5 mph - N/A   Clear
3:50 AM -16.6 °F -26.8 °F -22.0 °F 76% 29.94 in 10.0 mi SW 3.5 mph - N/A   Scattered Clouds
4:10 AM -16.6 °F -29.3 °F -22.0 °F 76% 29.93 in 10.0 mi SSW 4.6 mph - N/A   Clear
4:30 AM -16.6 °F -26.8 °F -22.0 °F 76% 29.92 in 10.0 mi South 3.5 mph - N/A   Clear
4:50 AM -16.6 °F -31.3 °F -22.0 °F 76% 29.92 in 10.0 mi South 5.8 mph - N/A   Scattered Clouds
5:10 AM -16.6 °F -29.3 °F -22.0 °F 76% 29.92 in 10.0 mi SW 4.6 mph - N/A   Clear
5:30 AM -16.6 °F -29.3 °F -22.0 °F 76% 29.92 in 10.0 mi SW 4.6 mph - N/A   Scattered Clouds
5:50 AM -13.0 °F -25.1 °F -18.4 °F 77% 29.91 in 10.0 mi South 4.6 mph - N/A   Overcast
6:10 AM -13.0 °F -22.7 °F -18.4 °F 77% 29.91 in 10.0 mi South 3.5 mph - N/A   Mostly Cloudy
6:30 AM -14.8 °F -29.1 °F -18.4 °F 84% 29.91 in 10.0 mi SSW 5.8 mph - N/A   Clear
6:50 AM -14.8 °F -30.8 °F -18.4 °F 84% 29.91 in 10.0 mi SSW 6.9 mph - N/A   Clear
7:10 AM -13.0 °F -28.6 °F -18.4 °F 77% 29.90 in 10.0 mi SSW 6.9 mph - N/A   Clear
7:30 AM -13.0 °F -28.6 °F -16.6 °F 84% 29.90 in 10.0 mi SSW 6.9 mph - N/A   Clear
7:50 AM -11.2 °F -23.0 °F -16.6 °F 77% 29.91 in 10.0 mi SSW 4.6 mph - N/A   Clear
8:10 AM -9.4 °F -24.3 °F -14.8 °F 77% 29.91 in 10.0 mi South 6.9 mph - N/A   Clear
8:30 AM -9.4 °F -24.3 °F -14.8 °F 77% 29.91 in 10.0 mi South 6.9 mph - N/A   Clear
8:50 AM -7.6 °F -22.1 °F -13.0 °F 77% 29.91 in 10.0 mi SSW 6.9 mph - N/A   Clear
9:10 AM -5.8 °F -22.4 °F -9.4 °F 84% 29.90 in 10.0 mi South 9.2 mph - N/A   Clear
9:30 AM -4.0 °F -21.2 °F -9.4 °F 78% 29.90 in 10.0 mi SSW 10.4 mph - N/A   Clear
9:50 AM -4.0 °F -22.1 °F -7.6 °F 85% 29.90 in 10.0 mi SW 11.5 mph - N/A   Clear
10:10 AM -0.4 °F -15.7 °F -7.6 °F 72% 29.88 in 10.0 mi SSW 9.2 mph - N/A   Clear
10:30 AM -0.4 °F -16.7 °F -7.6 °F 72% 29.88 in 10.0 mi SW 10.4 mph - N/A   Clear
10:50 AM 1.4 °F -14.5 °F -5.8 °F 72% 29.87 in 10.0 mi SSW 10.4 mph - N/A   Clear
11:10 AM 3.2 °F -11.3 °F -5.8 °F 66% 29.86 in 10.0 mi SSW 9.2 mph - N/A   Clear
11:30 AM 3.2 °F -12.2 °F -5.8 °F 66% 29.86 in 10.0 mi SSW 10.4 mph - N/A   Clear
11:50 AM 5.0 °F -10.8 °F -4.0 °F 66% 29.84 in 10.0 mi SSW 11.5 mph - N/A   Clear
12:10 PM 6.8 °F -9.3 °F -2.2 °F 67% 29.82 in 10.0 mi SSW 12.7 mph - N/A   Clear
12:30 PM 8.6 °F -7.0 °F -2.2 °F 62% 29.81 in 10.0 mi SSW 12.7 mph - N/A   Clear
12:50 PM 8.6 °F -7.0 °F -0.4 °F 67% 29.80 in 10.0 mi SW 12.7 mph - N/A   Clear
1:10 PM 8.6 °F -7.0 °F -0.4 °F 67% 29.79 in 10.0 mi SSW 12.7 mph - N/A   Clear
1:30 PM 10.4 °F -4.8 °F -0.4 °F 62% 29.79 in 10.0 mi SW 12.7 mph - N/A   Clear
1:50 PM 10.4 °F -4.1 °F 1.4 °F 67% 29.78 in 10.0 mi SSW 11.5 mph - N/A   Clear
2:10 PM 10.4 °F -4.1 °F -0.4 °F 62% 29.78 in 10.0 mi SW 11.5 mph - N/A   Clear
2:30 PM 10.4 °F -3.3 °F -0.4 °F 62% 29.77 in 10.0 mi SW 10.4 mph - N/A   Clear
2:50 PM 10.4 °F -4.1 °F 1.4 °F 67% 29.78 in 10.0 mi SW 11.5 mph - N/A   Clear
3:10 PM 12.2 °F -1.0 °F 3.2 °F 67% 29.78 in 10.0 mi SW 10.4 mph - N/A   Scattered Clouds
3:30 PM 12.2 °F 0.7 °F 3.2 °F 67% 29.78 in 10.0 mi SW 8.1 mph - N/A   Clear
3:50 PM 12.2 °F 4.3 °F 3.2 °F 67% 29.78 in 10.0 mi SSW 4.6 mph - N/A   Scattered Clouds
4:10 PM 12.2 °F 1.7 °F 3.2 °F 67% 29.81 in 10.0 mi SW 6.9 mph - N/A   Mostly Cloudy
4:30 PM 12.2 °F 0.7 °F 5.0 °F 73% 29.79 in 10.0 mi South 8.1 mph - N/A   Mostly Cloudy
4:50 PM 12.2 °F -0.2 °F 5.0 °F 73% 29.80 in 10.0 mi South 9.2 mph - N/A   Mostly Cloudy
5:10 PM 12.2 °F -0.2 °F 5.0 °F 73% 29.80 in 10.0 mi South 9.2 mph - N/A   Scattered Clouds
5:30 PM 10.4 °F -1.5 °F 3.2 °F 73% 29.80 in 10.0 mi SSW 8.1 mph - N/A   Clear
5:50 PM 10.4 °F -1.5 °F 3.2 °F 73% 29.81 in 10.0 mi SW 8.1 mph - N/A   Clear
6:10 PM 8.6 °F -3.7 °F 1.4 °F 73% 29.81 in 10.0 mi SW 8.1 mph - N/A   Clear
6:30 PM 8.6 °F -1.3 °F 3.2 °F 79% 29.82 in 10.0 mi SW 5.8 mph - N/A   Clear
6:50 PM 10.4 °F -2.4 °F 3.2 °F 73% 29.82 in 10.0 mi SW 9.2 mph - N/A   Clear
7:10 PM 10.4 °F -2.4 °F 3.2 °F 73% 29.82 in 10.0 mi SW 9.2 mph - N/A   Clear
7:30 PM 10.4 °F -2.4 °F 3.2 °F 73% 29.82 in 10.0 mi SSW 9.2 mph - N/A   Clear
7:50 PM 10.4 °F -4.1 °F 3.2 °F 73% 29.81 in 10.0 mi SSW 11.5 mph - N/A   Clear
8:10 PM 8.6 °F -6.3 °F 3.2 °F 79% 29.82 in 10.0 mi SSW 11.5 mph - N/A   Clear
8:30 PM 8.6 °F -3.7 °F 3.2 °F 79% 29.81 in 10.0 mi SSW 8.1 mph - N/A   Clear
8:50 PM 8.6 °F -5.5 °F 3.2 °F 79% 29.81 in 10.0 mi SSW 10.4 mph - N/A   Clear
9:10 PM 8.6 °F -7.0 °F 1.4 °F 73% 29.82 in 10.0 mi SSW 12.7 mph - N/A   Clear
9:30 PM 8.6 °F -4.7 °F 1.4 °F 73% 29.82 in 10.0 mi SW 9.2 mph - N/A   Clear
9:50 PM 8.6 °F -2.6 °F 1.4 °F 73% 29.82 in 10.0 mi SSW 6.9 mph - N/A   Clear
10:10 PM 8.6 °F -3.7 °F 3.2 °F 79% 29.82 in 10.0 mi South 8.1 mph - N/A   Mostly Cloudy
10:30 PM 8.6 °F -1.3 °F 3.2 °F 79% 29.82 in 10.0 mi SSW 5.8 mph - N/A   Overcast
10:50 PM 8.6 °F 0.1 °F 3.2 °F 79% 29.82 in 10.0 mi SSW 4.6 mph - N/A   Scattered Clouds
11:10 PM 10.4 °F -1.5 °F 3.2 °F 73% 29.82 in 10.0 mi SSW 8.1 mph - N/A   Mostly Cloudy
11:30 PM 10.4 °F -0.4 °F 3.2 °F 73% 29.83 in 10.0 mi SSW 6.9 mph - N/A   Mostly Cloudy
11:50 PM 8.6 °F -1.3 °F 3.2 °F 79% 29.83 in 10.0 mi SW 5.8 mph - N/A   Scattered Clouds